QPF
0.00 0.00 0.00 0.00 0.00 0.00 0.00 0.00 0.01 0.00 0.00 0.00 0.00 0.01 0.01 0.01 0.00 0.00 0.01 0.02 0.03 0.01 0.01 0.02 0.02 0.02 0.01 0.01 0.01 0.01 0.01 0.01 0.01 0.01 0.01 0.01 0.01 0.01 0.02 0.02 0.01 0.01 0.01 0.01
0.00 0.00 0.00 0.00 0.00 0.00 0.00 0.00 0.00 0.00 0.00 0.00 0.00 0.00 0.00 0.00 0.00 0.00 0.01 0.01 0.01 0.00 0.01 0.01 0.02 0.02 0.01 0.01 0.00 0.01 0.00 0.00 0.00 0.00 0.00 0.01 0.01 0.01 0.01 0.02 0.02 0.01 0.01 0.01
0.00 0.00 0.00 0.00 0.00 0.00 0.00 0.00 0.00 0.00 0.00 0.00 0.00 0.00 0.00 0.00 0.00 0.00 0.00 0.00 0.00 0.00 0.00 0.01 0.01 0.01 0.00 0.00 0.00 0.01 0.01 0.01 0.00 0.01 0.01 0.01 0.01 0.02 0.02 0.02 0.02 0.02 0.02 0.01
0.00 0.00 0.00 0.00 0.00 0.00 0.00 0.00 0.00 0.00 0.00 0.00 0.00 0.00 0.00 0.00 0.00 0.00 0.00 0.00 0.00 0.00 0.00 0.00 0.00 0.01 0.01 0.01 0.01 0.01 0.01 0.01 0.01 0.01 0.02 0.02 0.02 0.02 0.02 0.02 0.01 0.01 0.01 0.01
0.01 0.01 0.00 0.00 0.00 0.00 0.00 0.00 0.00 0.00 0.00 0.00 0.00 0.00 0.00 0.00 0.00 0.00 0.00 0.00 0.00 0.01 0.00 0.00 0.00 0.01 0.01 0.01 0.01 0.01 0.01 0.01 0.01 0.01 0.02 0.02 0.02 0.01 0.01 0.01 0.01 0.01 0.01 0.01
0.01 0.01 0.00 0.00 0.00 0.00 0.00 0.00 0.00 0.00 0.00 0.00 0.00 0.00 0.00 0.00 0.00 0.00 0.00 0.00 0.00 0.01 0.00 0.00 0.00 0.01 0.01 0.01 0.01 0.01 0.01 0.01 0.01 0.01 0.01 0.02 0.02 0.01 0.01 0.01 0.01 0.01 0.02 0.02
0.00 0.00 0.00 0.00 0.00 0.00 0.00 0.00 0.00 0.00 0.00 0.00 0.00 0.00 0.00 0.00 0.00 0.00 0.00 0.00 0.00 0.01 0.00 0.01 0.01 0.01 0.01 0.01 0.01 0.01 0.01 0.01 0.01 0.01 0.01 0.01 0.01 0.01 0.02 0.01 0.01 0.02 0.04 0.03
0.00 0.00 0.00 0.00 0.00 0.00 0.00 0.00 0.00 0.00 0.00 0.00 0.00 0.00 0.00 0.00 0.00 0.00 0.00 0.00 0.01 0.01 0.01 0.02 0.02 0.01 0.01 0.01 0.01 0.01 0.01 0.00 0.01 0.01 0.01 0.01 0.01 0.01 0.01 0.01 0.01 0.01 0.02 0.02
0.00 0.00 0.00 0.00 0.00 0.00 0.00 0.00 0.00 0.00 0.00 0.00 0.00 0.00 0.00 0.00 0.00 0.00 0.00 0.00 0.01 0.01 0.01 0.02 0.01 0.01 0.01 0.01 0.01 0.01 0.01 0.01 0.00 0.01 0.01 0.00 0.01 0.01 0.01 0.01 0.00 0.00 0.00 0.01
0.00 0.00 0.00 0.00 0.00 0.00 0.00 0.00 0.00 0.00 0.00 0.00 0.00 0.00 0.00 0.00 0.00 0.00 0.00 0.00 0.01 0.01 0.01 0.01 0.01 0.01 0.00 0.01 0.01 0.01 0.01 0.01 0.01 0.01 0.01 0.00 0.01 0.01 0.01 0.01 0.00 0.00 0.00 0.00
0.01 0.00 0.00 0.00 0.00 0.00 0.00 0.00 0.00 0.00 0.00 0.00 0.00 0.00 0.00 0.00 0.00 0.00 0.00 0.00 0.01 0.01 0.00 0.01 0.01 0.00 0.00 0.00 0.00 0.00 0.00 0.01 0.01 0.01 0.01 0.01 0.01 0.01 0.01 0.01 0.00 0.00 0.00 0.00
0.01 0.00 0.00 0.00 0.00 0.00 0.00 0.00 0.00 0.00 0.00 0.00 0.00 0.00 0.00 0.00 0.00 0.00 0.00 0.00 0.01 0.00 0.00 0.00 0.01 0.01 0.01 0.00 0.00 0.00 0.00 0.00 0.00 0.00 0.01 0.01 0.01 0.01 0.01 0.01 0.01 0.01 0.01 0.01
0.00 0.00 0.00 0.00 0.00 0.00 0.00 0.00 0.00 0.00 0.00 0.00 0.00 0.00 0.00 0.00 0.00 0.00 0.00 0.01 0.02 0.01 0.01 0.00 0.00 0.00 0.00 0.00 0.00 0.00 0.00 0.00 0.00 0.00 0.00 0.00 0.00 0.00 0.01 0.01 0.01 0.01 0.01 0.01
0.00 0.00 0.00 0.00 0.00 0.00 0.00 0.00 0.00 0.00 0.00 0.00 0.00 0.00 0.00 0.00 0.00 0.00 0.01 0.01 0.04 0.02 0.02 0.01 0.01 0.00 0.00 0.00 0.00 0.00 0.00 0.00 0.00 0.00 0.00 0.00 0.00 0.00 0.00 0.00 0.00 0.00 0.00 0.01
0.00 0.00 0.00 0.00 0.00 0.00 0.00 0.00 0.00 0.00 0.00 0.00 0.00 0.00 0.00 0.00 0.01 0.01 0.01 0.01 0.02 0.02 0.02 0.02 0.01 0.01 0.00 0.00 0.00 0.00 0.00 0.00 0.00 0.00 0.00 0.00 0.00 0.00 0.00 0.00 0.00 0.00 0.00 0.00
0.00 0.00 0.00 0.00 0.00 0.00 0.00 0.00 0.00 0.00 0.00 0.00 0.00 0.00 0.00 0.00 0.01 0.02 0.03 0.02 0.01 0.01 0.00 0.01 0.00 0.00 0.00 0.00 0.00 0.00 0.00 0.00 0.00 0.00 0.00 0.00 0.00 0.00 0.00 0.00 0.00 0.00 0.00 0.00
0.00 0.01 0.00 0.00 0.00 0.00 0.00 0.00 0.00 0.00 0.00 0.00 0.00 0.00 0.00 0.01 0.01 0.02 0.02 0.02 0.02 0.02 0.01 0.00 0.00 0.00 0.00 0.00 0.00 0.00 0.00 0.00 0.00 0.00 0.00 0.00 0.00 0.00 0.00 0.00 0.00 0.00 0.00 0.00
0.00 0.00 0.00 0.00 0.00 0.00 0.00 0.00 0.00 0.00 0.00 0.00 0.00 0.01 0.01 0.01 0.02 0.02 0.02 0.02 0.02 0.02 0.01 0.00 0.00 0.00 0.00 0.00 0.00 0.00 0.00 0.00 0.00 0.00 0.00 0.00 0.00 0.00 0.00 0.00 0.00 0.00 0.00 0.00
0.00 0.00 0.00 0.00 0.00 0.00 0.00 0.00 0.00 0.00 0.00 0.00 0.00 0.01 0.01 0.01 0.01 0.02 0.02 0.02 0.02 0.02 0.02 0.01 0.00 0.00 0.00 0.00 0.00 0.00 0.00 0.00 0.00 0.00 0.00 0.00 0.01 0.01 0.01 0.01 0.00 0.00 0.00 0.00
0.00 0.00 0.00 0.00 0.00 0.00 0.00 0.00 0.00 0.00 0.00 0.00 0.00 0.01 0.00 0.00 0.01 0.01 0.01 0.01 0.02 0.02 0.01 0.01 0.01 0.00 0.00 0.00 0.00 0.00 0.00 0.00 0.01 0.01 0.01 0.01 0.01 0.02 0.02 0.01 0.01 0.01 0.01 0.01
0.00 0.00 0.00 0.00 0.00 0.00 0.00 0.00 0.00 0.00 0.00 0.00 0.00 0.00 0.00 0.00 0.00 0.01 0.01 0.01 0.02 0.02 0.01 0.01 0.01 0.01 0.01 0.01 0.01 0.01 0.01 0.01 0.01 0.01 0.02 0.02 0.02 0.03 0.02 0.02 0.01 0.01 0.01 0.01
0.00 0.00 0.00 0.00 0.00 0.00 0.00 0.00 0.00 0.00 0.00 0.00 0.00 0.01 0.01 0.01 0.00 0.01 0.01 0.01 0.02 0.02 0.02 0.01 0.01 0.01 0.01 0.02 0.02 0.03 0.03 0.02 0.02 0.02 0.03 0.03 0.03 0.03 0.03 0.02 0.01 0.01 0.01 0.01
0.00 0.00 0.00 0.00 0.00 0.00 0.00 0.00 0.00 0.00 0.00 0.00 0.00 0.01 0.01 0.01 0.01 0.00 0.01 0.01 0.02 0.02 0.02 0.02 0.01 0.01 0.01 0.01 0.02 0.02 0.02 0.03 0.03 0.03 0.03 0.04 0.03 0.03 0.03 0.02 0.01 0.01 0.01 0.01
0.00 0.00 0.00 0.00 0.00 0.00 0.00 0.00 0.00 0.00 0.00 0.00 0.00 0.01 0.01 0.01 0.01 0.00 0.00 0.01 0.02 0.02 0.02 0.01 0.01 0.02 0.01 0.01 0.01 0.01 0.01 0.01 0.01 0.02 0.02 0.03 0.04 0.03 0.04 0.04 0.03 0.02 0.01 0.02
0.00 0.00 0.00 0.00 0.00 0.00 0.00 0.00 0.00 0.00 0.00 0.01 0.01 0.01 0.01 0.01 0.01 0.00 0.00 0.00 0.01 0.01 0.01 0.01 0.01 0.01 0.01 0.01 0.02 0.02 0.01 0.01 0.00 0.00 0.00 0.01 0.01 0.02 0.02 0.03 0.03 0.03 0.03 0.03
0.00 0.00 0.00 0.00 0.00 0.00 0.00 0.00 0.00 0.00 0.01 0.01 0.01 0.00 0.00 0.01 0.00 0.00 0.00 0.00 0.01 0.01 0.01 0.01 0.01 0.01 0.00 0.01 0.01 0.02 0.02 0.01 0.01 0.00 0.00 0.00 0.00 0.01 0.01 0.01 0.02 0.03 0.03 0.03
0.00 0.00 0.00 0.00 0.00 0.00 0.00 0.00 0.00 0.00 0.01 0.01 0.01 0.01 0.01 0.01 0.01 0.01 0.01 0.00 0.00 0.00 0.00 0.01 0.01 0.01 0.00 0.00 0.01 0.02 0.02 0.03 0.01 0.01 0.00 0.00 0.01 0.01 0.01 0.01 0.02 0.02 0.03 0.02
MSLP
1018.94 1019.47 1019.97 1020.40 1020.75 1020.98 1021.07 1021.03 1020.87 1020.60 1020.27 1019.91 1019.59 1019.33 1019.16 1019.09 1019.11 1019.20 1019.33 1019.48 1019.60 1019.69 1019.75 1019.76 1019.75 1019.74 1019.73 1019.74 1019.76 1019.79 1019.83 1019.85 1019.86 1019.84 1019.79 1019.72 1019.65 1019.58 1019.53 1019.49 1019.47 1019.47 1019.48 1019.49
1019.02 1019.44 1019.75 1019.96 1020.04 1020.02 1019.90 1019.71 1019.46 1019.19 1018.94 1018.72 1018.57 1018.49 1018.49 1018.56 1018.68 1018.82 1018.98 1019.11 1019.23 1019.32 1019.39 1019.46 1019.53 1019.61 1019.71 1019.82 1019.93 1020.04 1020.12 1020.16 1020.17 1020.13 1020.08 1020.00 1019.93 1019.88 1019.84 1019.81 1019.80 1019.79 1019.77 1019.73
1019.24 1019.52 1019.63 1019.59 1019.42 1019.15 1018.81 1018.46 1018.13 1017.86 1017.66 1017.56 1017.56 1017.65 1017.81 1018.00 1018.21 1018.41 1018.59 1018.74 1018.86 1018.97 1019.09 1019.22 1019.37 1019.56 1019.77 1019.98 1020.18 1020.35 1020.48 1020.54 1020.55 1020.52 1020.46 1020.39 1020.33 1020.29 1020.28 1020.28 1020.28 1020.27 1020.23 1020.15
1019.50 1019.62 1019.53 1019.25 1018.84 1018.33 1017.81 1017.31 1016.90 1016.62 1016.47 1016.47 1016.60 1016.83 1017.11 1017.42 1017.72 1017.99 1018.21 1018.39 1018.54 1018.69 1018.86 1019.07 1019.31 1019.60 1019.91 1020.21 1020.49 1020.72 1020.88 1020.97 1020.99 1020.95 1020.90 1020.84 1020.79 1020.78 1020.80 1020.83 1020.85 1020.85 1020.80 1020.68
1019.62 1019.57 1019.30 1018.82 1018.20 1017.51 1016.83 1016.23 1015.76 1015.47 1015.37 1015.45 1015.69 1016.03 1016.43 1016.85 1017.23 1017.57 1017.85 1018.08 1018.28 1018.49 1018.73 1019.01 1019.34 1019.72 1020.11 1020.49 1020.83 1021.10 1021.29 1021.39 1021.41 1021.38 1021.32 1021.28 1021.26 1021.27 1021.32 1021.38 1021.44 1021.45 1021.40 1021.26
1019.42 1019.23 1018.80 1018.17 1017.40 1016.59 1015.82 1015.16 1014.67 1014.40 1014.34 1014.50 1014.83 1015.28 1015.78 1016.29 1016.76 1017.18 1017.52 1017.82 1018.09 1018.37 1018.68 1019.04 1019.45 1019.89 1020.35 1020.79 1021.17 1021.47 1021.67 1021.77 1021.79 1021.76 1021.71 1021.67 1021.67 1021.71 1021.79 1021.88 1021.96 1021.99 1021.95 1021.80
1018.77 1018.45 1017.91 1017.19 1016.36 1015.50 1014.71 1014.05 1013.59 1013.36 1013.38 1013.62 1014.04 1014.58 1015.18 1015.78 1016.33 1016.83 1017.26 1017.63 1017.98 1018.33 1018.71 1019.13 1019.60 1020.10 1020.60 1021.07 1021.47 1021.78 1021.99 1022.09 1022.12 1022.09 1022.04 1022.01 1022.02 1022.07 1022.17 1022.28 1022.38 1022.42 1022.38 1022.23
1017.60 1017.21 1016.61 1015.87 1015.05 1014.22 1013.48 1012.89 1012.51 1012.37 1012.47 1012.80 1013.31 1013.94 1014.62 1015.31 1015.95 1016.53 1017.04 1017.50 1017.92 1018.34 1018.78 1019.26 1019.77 1020.30 1020.83 1021.31 1021.72 1022.03 1022.24 1022.35 1022.38 1022.35 1022.31 1022.29 1022.30 1022.36 1022.46 1022.58 1022.67 1022.72 1022.68 1022.53
1015.98 1015.54 1014.95 1014.25 1013.51 1012.79 1012.16 1011.69 1011.43 1011.41 1011.62 1012.05 1012.64 1013.35 1014.12 1014.88 1015.61 1016.27 1016.86 1017.39 1017.89 1018.37 1018.87 1019.39 1019.92 1020.47 1021.00 1021.48 1021.90 1022.21 1022.43 1022.55 1022.59 1022.58 1022.55 1022.53 1022.54 1022.60 1022.68 1022.79 1022.87 1022.91 1022.86 1022.72
1014.04 1013.60 1013.07 1012.47 1011.85 1011.28 1010.82 1010.52 1010.40 1010.51 1010.84 1011.36 1012.04 1012.83 1013.66 1014.50 1015.29 1016.03 1016.69 1017.30 1017.85 1018.39 1018.93 1019.47 1020.02 1020.57 1021.10 1021.58 1021.99 1022.31 1022.54 1022.68 1022.75 1022.76 1022.75 1022.75 1022.76 1022.80 1022.87 1022.95 1023.01 1023.02 1022.96 1022.81
1012.02 1011.61 1011.16 1010.69 1010.24 1009.85 1009.57 1009.44 1009.49 1009.73 1010.16 1010.77 1011.52 1012.36 1013.24 1014.13 1014.98 1015.77 1016.50 1017.16 1017.78 1018.36 1018.92 1019.48 1020.03 1020.57 1021.09 1021.57 1021.98 1022.32 1022.58 1022.76 1022.86 1022.92 1022.94 1022.96 1022.97 1023.01 1023.05 1023.09 1023.11 1023.09 1023.01 1022.86
1010.14 1009.78 1009.44 1009.11 1008.84 1008.63 1008.53 1008.56 1008.75 1009.10 1009.62 1010.28 1011.07 1011.94 1012.85 1013.76 1014.65 1015.49 1016.26 1016.97 1017.62 1018.23 1018.82 1019.38 1019.93 1020.47 1020.98 1021.45 1021.88 1022.24 1022.53 1022.76 1022.92 1023.03 1023.09 1023.14 1023.17 1023.20 1023.21 1023.22 1023.20 1023.15 1023.05 1022.89
1008.56 1008.28 1008.05 1007.87 1007.75 1007.71 1007.77 1007.94 1008.23 1008.66 1009.22 1009.91 1010.70 1011.56 1012.47 1013.39 1014.29 1015.14 1015.94 1016.68 1017.37 1018.00 1018.60 1019.16 1019.71 1020.24 1020.75 1021.22 1021.66 1022.05 1022.39 1022.67 1022.90 1023.07 1023.19 1023.27 1023.32 1023.35 1023.35 1023.33 1023.28 1023.20 1023.08 1022.92
1007.36 1007.16 1007.04 1007.00 1007.02 1007.12 1007.30 1007.57 1007.93 1008.39 1008.96 1009.64 1010.40 1011.23 1012.10 1012.99 1013.88 1014.74 1015.55 1016.30 1017.00 1017.65 1018.26 1018.83 1019.38 1019.90 1020.40 1020.89 1021.34 1021.77 1022.15 1022.49 1022.77 1023.00 1023.19 1023.31 1023.39 1023.43 1023.43 1023.40 1023.32 1023.22 1023.10 1022.94
1006.49 1006.38 1006.38 1006.46 1006.60 1006.81 1007.08 1007.41 1007.80 1008.27 1008.81 1009.44 1010.14 1010.91 1011.73 1012.57 1013.43 1014.26 1015.07 1015.83 1016.54 1017.20 1017.82 1018.40 1018.94 1019.47 1019.97 1020.46 1020.94 1021.39 1021.81 1022.20 1022.54 1022.83 1023.06 1023.23 1023.35 1023.40 1023.41 1023.37 1023.30 1023.20 1023.07 1022.93
1005.83 1005.83 1005.93 1006.12 1006.37 1006.67 1007.00 1007.36 1007.76 1008.21 1008.71 1009.27 1009.90 1010.59 1011.33 1012.11 1012.92 1013.73 1014.52 1015.28 1016.00 1016.67 1017.30 1017.89 1018.44 1018.97 1019.48 1019.98 1020.47 1020.94 1021.39 1021.81 1022.20 1022.53 1022.80 1023.02 1023.16 1023.24 1023.27 1023.25 1023.18 1023.10 1022.99 1022.88
1005.23 1005.33 1005.54 1005.83 1006.17 1006.53 1006.91 1007.30 1007.70 1008.11 1008.56 1009.06 1009.61 1010.22 1010.89 1011.61 1012.37 1013.14 1013.92 1014.68 1015.41 1016.09 1016.74 1017.34 1017.91 1018.45 1018.97 1019.48 1019.97 1020.46 1020.92 1021.36 1021.77 1022.13 1022.43 1022.67 1022.85 1022.96 1023.00 1023.00 1022.96 1022.90 1022.82 1022.74
1004.54 1004.75 1005.05 1005.43 1005.85 1006.27 1006.69 1007.10 1007.49 1007.88 1008.29 1008.73 1009.22 1009.77 1010.38 1011.05 1011.77 1012.52 1013.29 1014.05 1014.79 1015.50 1016.17 1016.79 1017.38 1017.94 1018.47 1018.99 1019.49 1019.98 1020.45 1020.89 1021.30 1021.67 1021.99 1022.24 1022.43 1022.56 1022.63 1022.65 1022.64 1022.61 1022.56 1022.52
1003.68 1003.98 1004.36 1004.81 1005.29 1005.77 1006.22 1006.65 1007.05 1007.44 1007.83 1008.24 1008.70 1009.21 1009.79 1010.43 1011.13 1011.87 1012.64 1013.41 1014.17 1014.91 1015.61 1016.27 1016.89 1017.48 1018.03 1018.55 1019.06 1019.54 1020.00 1020.43 1020.83 1021.19 1021.50 1021.75 1021.94 1022.08 1022.17 1022.22 1022.24 1022.24 1022.23 1022.21
1002.68 1003.03 1003.47 1003.97 1004.48 1004.99 1005.48 1005.93 1006.35 1006.76 1007.15 1007.57 1008.03 1008.54 1009.11 1009.76 1010.46 1011.21 1012.00 1012.80 1013.59 1014.36 1015.10 1015.80 1016.46 1017.07 1017.64 1018.18 1018.68 1019.16 1019.60 1020.01 1020.39 1020.72 1021.01 1021.24 1021.43 1021.57 1021.67 1021.73 1021.78 1021.80 1021.82 1021.83
1001.63 1002.00 1002.46 1002.96 1003.49 1004.01 1004.51 1004.99 1005.44 1005.88 1006.31 1006.76 1007.25 1007.79 1008.40 1009.07 1009.79 1010.57 1011.39 1012.22 1013.05 1013.86 1014.64 1015.38 1016.07 1016.71 1017.30 1017.85 1018.36 1018.82 1019.25 1019.63 1019.97 1020.28 1020.53 1020.74 1020.91 1021.04 1021.14 1021.22 1021.27 1021.32 1021.35 1021.39
1000.70 1001.04 1001.45 1001.93 1002.43 1002.94 1003.45 1003.94 1004.42 1004.90 1005.38 1005.89 1006.43 1007.03 1007.69 1008.40 1009.17 1009.99 1010.84 1011.71 1012.57 1013.41 1014.23 1015.00 1015.72 1016.38 1016.99 1017.55 1018.06 1018.51 1018.91 1019.27 1019.58 1019.85 1020.07 1020.25 1020.40 1020.52 1020.61 1020.68 1020.74 1020.79 1020.84 1020.88
1000.01 1000.28 1000.63 1001.03 1001.47 1001.95 1002.43 1002.93 1003.43 1003.95 1004.49 1005.07 1005.68 1006.34 1007.06 1007.83 1008.65 1009.50 1010.38 1011.27 1012.16 1013.02 1013.85 1014.64 1015.38 1016.06 1016.68 1017.24 1017.75 1018.19 1018.57 1018.91 1019.19 1019.42 1019.61 1019.76 1019.88 1019.98 1020.06 1020.13 1020.19 1020.24 1020.29 1020.34
999.69 999.86 1000.10 1000.41 1000.77 1001.18 1001.63 1002.12 1002.64 1003.19 1003.78 1004.42 1005.10 1005.83 1006.60 1007.42 1008.27 1009.15 1010.04 1010.94 1011.83 1012.69 1013.52 1014.31 1015.04 1015.72 1016.34 1016.90 1017.39 1017.82 1018.19 1018.50 1018.76 1018.96 1019.12 1019.25 1019.35 1019.43 1019.49 1019.55 1019.61 1019.66 1019.71 1019.75
999.77 999.83 999.95 1000.16 1000.43 1000.77 1001.17 1001.64 1002.16 1002.74 1003.37 1004.05 1004.78 1005.55 1006.36 1007.21 1008.07 1008.95 1009.84 1010.72 1011.58 1012.41 1013.22 1013.98 1014.69 1015.36 1015.96 1016.50 1016.98 1017.40 1017.75 1018.04 1018.28 1018.47 1018.61 1018.72 1018.80 1018.86 1018.91 1018.96 1019.01 1019.06 1019.10 1019.13
1000.20 1000.16 1000.19 1000.30 1000.49 1000.77 1001.13 1001.57 1002.08 1002.67 1003.32 1004.03 1004.78 1005.57 1006.39 1007.23 1008.08 1008.93 1009.77 1010.60 1011.41 1012.20 1012.95 1013.67 1014.34 1014.97 1015.54 1016.06 1016.52 1016.92 1017.26 1017.54 1017.76 1017.94 1018.07 1018.16 1018.23 1018.28 1018.32 1018.36 1018.40 1018.44 1018.47 1018.50
1000.89 1000.79 1000.76 1000.80 1000.94 1001.17 1001.49 1001.91 1002.41 1002.99 1003.64 1004.34 1005.09 1005.86 1006.66 1007.46 1008.26 1009.05 1009.83 1010.59 1011.33 1012.04 1012.72 1013.37 1013.99 1014.57 1015.11 1015.60 1016.03 1016.42 1016.74 1017.01 1017.22 1017.39 1017.51 1017.59 1017.65 1017.69 1017.72 1017.75 1017.78 1017.81 1017.83 1017.85
Thickness
5697 5703 5704 5703 5705 5707 5699 5692 5682 5689 5691 5698 5704 5706 5707 5708 5707 5706 5705 5704 5702 5700 5698 5696 5694 5692 5690 5688 5686 5685 5682 5680 5679 5678 5677 5675 5674 5672 5671 5670 5668 5666 5664 5663
5692 5701 5701 5698 5702 5703 5701 5699 5694 5693 5693 5705 5706 5705 5703 5703 5702 5700 5700 5700 5699 5697 5695 5692 5690 5689 5687 5684 5682 5680 5678 5676 5675 5673 5672 5670 5669 5668 5667 5665 5663 5662 5660 5658
5674 5687 5690 5681 5696 5698 5698 5700 5698 5689 5695 5701 5698 5700 5699 5699 5698 5697 5696 5696 5694 5693 5692 5690 5689 5687 5684 5682 5679 5676 5674 5672 5671 5669 5667 5665 5665 5663 5661 5660 5659 5657 5656 5654
5666 5673 5663 5684 5705 5705 5699 5700 5702 5700 5700 5700 5700 5700 5700 5699 5696 5694 5693 5692 5691 5690 5689 5688 5686 5684 5682 5678 5675 5673 5670 5668 5667 5665 5663 5661 5659 5658 5657 5656 5654 5653 5651 5650
5656 5655 5665 5685 5700 5700 5693 5689 5699 5697 5697 5697 5698 5693 5691 5695 5695 5692 5691 5690 5689 5688 5686 5684 5682 5680 5676 5673 5671 5669 5666 5664 5663 5661 5658 5656 5654 5653 5653 5651 5650 5649 5647 5645
5653 5652 5653 5679 5700 5706 5695 5679 5696 5696 5693 5691 5688 5674 5678 5690 5690 5689 5689 5687 5686 5683 5681 5678 5676 5674 5670 5667 5665 5663 5662 5661 5660 5658 5655 5652 5651 5650 5649 5648 5646 5644 5642 5640
5649 5648 5659 5684 5697 5696 5671 5676 5694 5694 5691 5688 5681 5680 5684 5686 5685 5685 5683 5682 5680 5678 5675 5672 5671 5668 5664 5661 5660 5660 5659 5658 5655 5653 5651 5649 5647 5646 5644 5643 5641 5639 5636 5634
5644 5642 5655 5688 5688 5680 5681 5690 5691 5690 5689 5686 5683 5683 5682 5681 5679 5678 5676 5675 5673 5670 5667 5666 5665 5662 5658 5655 5656 5655 5654 5652 5650 5648 5647 5645 5642 5640 5638 5636 5634 5632 5629 5627
5655 5660 5677 5685 5685 5689 5688 5684 5686 5685 5685 5683 5678 5676 5675 5673 5672 5671 5669 5668 5666 5663 5660 5659 5658 5656 5652 5650 5650 5649 5647 5645 5644 5642 5640 5639 5637 5634 5632 5629 5627 5625 5623 5621
5654 5663 5672 5677 5681 5683 5683 5681 5682 5681 5679 5677 5672 5670 5668 5667 5665 5663 5662 5660 5659 5656 5654 5651 5651 5650 5648 5645 5643 5641 5640 5638 5637 5635 5634 5633 5631 5629 5626 5623 5620 5619 5616 5614
5648 5657 5663 5669 5673 5675 5675 5675 5675 5674 5673 5671 5667 5664 5662 5659 5658 5656 5655 5653 5652 5650 5647 5646 5645 5643 5642 5640 5638 5635 5633 5632 5631 5630 5628 5626 5624 5623 5621 5619 5617 5615 5612 5610
5644 5654 5652 5657 5666 5668 5666 5666 5666 5665 5663 5663 5662 5658 5656 5653 5651 5650 5648 5646 5645 5643 5641 5640 5639 5637 5636 5634 5632 5630 5627 5626 5625 5623 5621 5619 5617 5615 5614 5612 5611 5610 5608 5605
5652 5655 5654 5657 5660 5661 5660 5660 5660 5659 5657 5655 5654 5652 5650 5646 5644 5643 5641 5640 5638 5637 5635 5634 5633 5631 5630 5629 5627 5624 5622 5621 5619 5617 5615 5612 5610 5608 5605 5604 5603 5602 5600 5597
5650 5648 5645 5648 5649 5653 5653 5654 5654 5652 5651 5650 5647 5646 5643 5640 5638 5636 5635 5634 5633 5631 5629 5627 5626 5625 5624 5623 5621 5619 5617 5616 5613 5611 5609 5606 5604 5601 5599 5596 5593 5592 5591 5589
5642 5642 5642 5643 5643 5644 5645 5644 5642 5641 5641 5641 5640 5638 5636 5633 5631 5630 5629 5628 5626 5624 5621 5620 5619 5618 5618 5617 5614 5612 5610 5607 5606 5603 5601 5599 5596 5594 5591 5589 5586 5583 5581 5579
5635 5635 5634 5634 5634 5635 5635 5635 5633 5633 5633 5633 5631 5631 5630 5628 5626 5624 5622 5620 5618 5616 5615 5613 5612 5612 5611 5609 5607 5604 5602 5601 5599 5596 5593 5590 5587 5585 5583 5580 5577 5575 5572 5570
5624 5624 5625 5625 5626 5627 5628 5628 5628 5627 5626 5625 5625 5624 5622 5619 5617 5615 5614 5613 5612 5610 5609 5607 5606 5605 5604 5602 5600 5598 5595 5594 5592 5588 5585 5582 5579 5577 5574 5572 5569 5567 5564 5562
5624 5625 5624 5623 5622 5621 5621 5621 5621 5620 5620 5620 5618 5616 5613 5611 5609 5607 5606 5604 5603 5602 5601 5601 5600 5598 5596 5595 5593 5590 5588 5585 5583 5580 5577 5574 5571 5568 5566 5563 5561 5558 5556 5553
5618 5618 5618 5618 5618 5616 5615 5614 5613 5613 5612 5611 5609 5608 5607 5605 5603 5600 5598 5595 5594 5592 5593 5593 5593 5590 5588 5586 5585 5582 5580 5577 5574 5572 5569 5567 5563 5560 5557 5554 5552 5549 5546 5543
5610 5611 5611 5611 5611 5609 5608 5607 5606 5605 5604 5603 5601 5599 5597 5596 5595 5592 5590 5588 5587 5587 5586 5585 5583 5581 5579 5578 5576 5573 5571 5569 5566 5563 5560 5557 5554 5551 5549 5546 5543 5540 5537 5534
5602 5603 5603 5603 5603 5602 5601 5600 5598 5597 5596 5595 5593 5591 5589 5588 5586 5584 5581 5579 5579 5578 5577 5576 5574 5572 5570 5568 5566 5563 5561 5559 5556 5554 5550 5548 5545 5542 5539 5537 5534 5531 5528 5525
5593 5594 5594 5594 5594 5593 5593 5592 5591 5589 5587 5585 5584 5583 5581 5579 5576 5574 5573 5571 5571 5569 5568 5566 5564 5563 5561 5559 5556 5553 5551 5549 5546 5543 5540 5538 5535 5532 5529 5527 5524 5521 5518 5515
5583 5584 5585 5585 5585 5584 5584 5583 5582 5581 5579 5577 5575 5573 5571 5569 5567 5564 5562 5561 5561 5560 5558 5556 5555 5554 5552 5548 5545 5543 5541 5538 5536 5533 5531 5528 5525 5522 5519 5516 5513 5510 5508 5505
5572 5573 5575 5576 5576 5574 5573 5573 5573 5572 5571 5569 5568 5565 5562 5559 5557 5556 5555 5553 5552 5550 5548 5546 5544 5543 5541 5537 5534 5532 5530 5527 5525 5523 5520 5518 5515 5512 5508 5505 5502 5500 5497 5495
5562 5563 5564 5564 5564 5564 5564 5564 5562 5560 5559 5558 5556 5555 5553 5551 5549 5546 5544 5543 5542 5540 5537 5535 5534 5532 5529 5526 5523 5521 5518 5516 5514 5512 5509 5506 5503 5500 5497 5494 5491 5489 5486 5483
5551 5552 5553 5555 5555 5555 5554 5553 5551 5550 5548 5546 5545 5544 5542 5540 5538 5536 5534 5533 5531 5529 5526 5524 5522 5520 5517 5514 5512 5510 5507 5506 5503 5500 5498 5495 5493 5490 5487 5484 5481 5478 5475 5472
5540 5541 5542 5542 5543 5544 5544 5543 5541 5539 5538 5537 5534 5533 5531 5529 5527 5525 5523 5521 5519 5517 5515 5512 5510 5508 5506 5503 5501 5499 5496 5494 5492 5489 5487 5484 5482 5479 5476 5473 5470 5467 5463 5461